Location: Biltmore Gardens
(41.6070°N, 83.4666°W)
Time: 14:23:25
(UTC+00:00)

CZ-2D R/B - Pass Details

Date: 14 July 2020
Orbit: 792 x 845 km, 98.7° (Epoch: 04 August)

Event Time Altitude Azimuth Distance (km) Brightness Sun altitude
Rises 05:45:52 0° 34° (NNE) 3,354 6.2 -26.8°
Reaches altitude 10° 05:49:27 10° 59° (ENE) 2,428 5.0 -26.8°
Maximum altitude 05:52:13 14° 90° (E) 2,151 4.3 -26.7°
Enters shadow 05:53:05 14° 101° (E) 2,181 4.3 -26.7°
